Location: *
(51.5000°N, 0.1100°W)
Time: 19:28:15
(UTC+00:00)

SL-14 R/B - Pass Details

Date: 25 May 2024
Orbit: 508 x 541 km, 82.4° (Epoch: 16 June)

Event Time Altitude Azimuth Distance (km) Brightness Sun altitude
Exits shadow 00:37:07 38° 200° (SSW) 804 3.6 -17.0°
Maximum altitude 00:38:30 79° 280° (W) 536 3.2 -16.9°
Drops below altitude 10° 00:42:21 10° 9° (N) 1,755 7.2 -16.8°
Sets 00:44:30 0° 10° (N) 2,643 8.6 -16.8°
